• In Denmark
  • List of Countries
  • For 7 days
  • Water Temperature
  • Satellite Maps
  • Weather Map
  • Weather Widgets
  • user-avatar
    Login

    Hourly Weather Jasionki

    Today, 24 May, Thursday

    Time Temperature Precipitation Wind Pressure Humidity
    00:00 +14°C° 0.1 mm 2 mps 730 mmHg 95%
    01:00 +14°C° 0 mm 1 mps 731 mmHg 95%
    02:00 +13°C° 0.2 mm 1 mps 731 mmHg 95%
    03:00 +13°C° 0.2 mm 1 mps 730 mmHg 96%
    04:00 +13°C° 0.2 mm 2 mps 730 mmHg 96%
    05:00 +14°C° 0 mm 2 mps 731 mmHg 94%
    06:00 +15°C° 0 mm 2 mps 731 mmHg 92%
    07:00 +17°C° 0 mm 2 mps 731 mmHg 89%
    08:00 +18°C° 0.1 mm 3 mps 731 mmHg 85%
    09:00 +19°C° 0.1 mm 3 mps 731 mmHg 81%
    10:00 +20°C° 0.1 mm 3 mps 731 mmHg 77%
    11:00 +20°C° 0.2 mm 4 mps 731 mmHg 73%
    12:00 +21°C° 0.2 mm 4 mps 731 mmHg 69%
    13:00 +22°C° 0.2 mm 4 mps 731 mmHg 65%
    14:00 +22°C° 0.1 mm 4 mps 730 mmHg 64%
    15:00 +22°C° 0.1 mm 4 mps 730 mmHg 64%
    16:00 +22°C° 0.1 mm 4 mps 730 mmHg 64%
    17:00 +20°C° 0 mm 4 mps 730 mmHg 69%
    18:00 +19°C° 0 mm 3 mps 730 mmHg 75%
    19:00 +17°C° 0 mm 3 mps 730 mmHg 81%
    20:00 +16°C° 0 mm 2 mps 730 mmHg 84%
    21:00 +15°C° 0 mm 2 mps 730 mmHg 87%
    22:00 +14°C° 0 mm 2 mps 730 mmHg 91%
    23:00 +13°C° 0 mm 1 mps 730 mmHg 91%

    Tomorrow, 25 May, Friday

    Time Temperature Precipitation Wind Pressure Humidity
    00:00 +13°C° 0 mm 1 mps 729 mmHg 92%
    01:00 +12°C° 0 mm 1 mps 729 mmHg 93%
    02:00 +12°C° 0 mm 1 mps 729 mmHg 94%
    03:00 +11°C° 0 mm 1 mps 729 mmHg 94%
    04:00 +11°C° 0 mm 1 mps 729 mmHg 95%
    05:00 +13°C° 0 mm 1 mps 729 mmHg 90%
    06:00 +15°C° 0 mm 1 mps 730 mmHg 85%
    07:00 +16°C° 0 mm 2 mps 730 mmHg 80%
    08:00 +18°C° 0 mm 2 mps 730 mmHg 73%
    09:00 +19°C° 0 mm 3 mps 730 mmHg 67%
    10:00 +21°C° 0 mm 3 mps 730 mmHg 61%
    11:00 +21°C° 0 mm 3 mps 730 mmHg 60%
    12:00 +22°C° 0 mm 3 mps 730 mmHg 59%
    13:00 +22°C° 0 mm 3 mps 730 mmHg 58%
    14:00 +22°C° 0.2 mm 3 mps 730 mmHg 62%
    15:00 +22°C° 0.2 mm 3 mps 729 mmHg 66%
    16:00 +21°C° 0.2 mm 3 mps 729 mmHg 71%
    17:00 +20°C° 0.1 mm 2 mps 729 mmHg 77%
    18:00 +19°C° 0.1 mm 2 mps 729 mmHg 83%
    19:00 +18°C° 0.1 mm 1 mps 729 mmHg 89%
    20:00 +16°C° 0 mm 1 mps 730 mmHg 91%
    21:00 +16°C° 0 mm 1 mps 730 mmHg 92%
    22:00 +15°C° 0 mm 1 mps 730 mmHg 94%
    23:00 +14°C° 0 mm 1 mps 730 mmHg 94%

    Day after tomorrow, 26 May, Saturday

    Time Temperature Precipitation Wind Pressure Humidity
    00:00 +14°C° 0 mm 1 mps 730 mmHg 94%
    01:00 +13°C° 0 mm 0 mps 730 mmHg 94%
    02:00 +13°C° 0 mm 0 mps 730 mmHg 94%
    03:00 +13°C° 0 mm 0 mps 730 mmHg 94%
    04:00 +13°C° 0 mm 0 mps 731 mmHg 94%
    05:00 +14°C° 0 mm 0 mps 731 mmHg 92%
    06:00 +15°C° 0 mm 0 mps 731 mmHg 89%
    07:00 +17°C° 0 mm 0 mps 731 mmHg 87%
    08:00 +18°C° 0.3 mm 0 mps 731 mmHg 82%
    09:00 +21°C° 0.3 mm 1 mps 732 mmHg 78%
    10:00 +23°C° 0.3 mm 1 mps 732 mmHg 74%
    11:00 +23°C° 0.5 mm 2 mps 731 mmHg 71%
    12:00 +24°C° 0.5 mm 2 mps 731 mmHg 69%
    13:00 +25°C° 0.5 mm 2 mps 731 mmHg 66%
    14:00 +25°C° 0.3 mm 2 mps 731 mmHg 68%
    15:00 +24°C° 0.3 mm 2 mps 731 mmHg 69%
    16:00 +24°C° 0.3 mm 3 mps 731 mmHg 71%
    17:00 +23°C° 0.3 mm 2 mps 731 mmHg 77%
    18:00 +21°C° 0.3 mm 2 mps 730 mmHg 82%
    19:00 +19°C° 0.3 mm 2 mps 730 mmHg 88%
    20:00 +18°C° 0 mm 2 mps 730 mmHg 90%
    21:00 +19°C° 0 mm 1 mps 730 mmHg 91%
    22:00 +18°C° 0 mm 1 mps 730 mmHg 93%
    23:00 +16°C° 0 mm 1 mps 730 mmHg 93%

    27 May, Sunday

    Time Temperature Precipitation Wind Pressure Humidity
    00:00 +16°C° 0 mm 1 mps 730 mmHg 93%
    01:00 +15°C° 0 mm 1 mps 730 mmHg 93%
    02:00 +15°C° 0 mm 1 mps 730 mmHg 93%
    03:00 +15°C° 0 mm 1 mps 730 mmHg 94%
    04:00 +14°C° 0 mm 1 mps 730 mmHg 94%
    05:00 +16°C° 0 mm 1 mps 730 mmHg 90%
    06:00 +19°C° 0 mm 1 mps 730 mmHg 86%
    07:00 +20°C° 0 mm 1 mps 731 mmHg 83%
    08:00 +21°C° 0.3 mm 1 mps 731 mmHg 79%
    09:00 +23°C° 0.3 mm 1 mps 731 mmHg 76%
    10:00 +24°C° 0.3 mm 1 mps 731 mmHg 73%
    11:00 +24°C° 0.5 mm 1 mps 731 mmHg 72%
    12:00 +25°C° 0.5 mm 2 mps 731 mmHg 70%
    13:00 +25°C° 0.5 mm 2 mps 730 mmHg 69%
    14:00 +25°C° 1.1 mm 2 mps 730 mmHg 72%
    15:00 +25°C° 1.1 mm 2 mps 730 mmHg 74%
    16:00 +24°C° 1.1 mm 2 mps 730 mmHg 77%
    17:00 +23°C° 0.5 mm 2 mps 730 mmHg 81%
    18:00 +21°C° 0.5 mm 2 mps 730 mmHg 86%
    19:00 +21°C° 0.5 mm 1 mps 730 mmHg 91%
    20:00 +20°C° 0 mm 1 mps 731 mmHg 92%
    21:00 +19°C° 0 mm 1 mps 731 mmHg 94%
    22:00 +18°C° 0 mm 1 mps 731 mmHg 95%
    23:00 +18°C° 0 mm 1 mps 731 mmHg 96%

    28 May, Monday

    Time Temperature Precipitation Wind Pressure Humidity
    00:00 +16°C° 0 mm 1 mps 731 mmHg 96%
    01:00 +16°C° 0 mm 1 mps 731 mmHg 96%
    02:00 +15°C° 0 mm 1 mps 731 mmHg 96%
    03:00 +15°C° 0 mm 1 mps 731 mmHg 97%
    04:00 +15°C° 0 mm 1 mps 731 mmHg 97%
    05:00 +16°C° 0 mm 1 mps 731 mmHg 93%
    06:00 +18°C° 0 mm 2 mps 732 mmHg 90%
    07:00 +19°C° 0 mm 2 mps 732 mmHg 87%
    08:00 +21°C° 0 mm 2 mps 732 mmHg 79%
    09:00 +22°C° 0 mm 3 mps 732 mmHg 71%
    10:00 +25°C° 0 mm 3 mps 733 mmHg 63%
    11:00 +25°C° 0.3 mm 4 mps 733 mmHg 65%
    12:00 +25°C° 0.3 mm 4 mps 732 mmHg 67%
    13:00 +26°C° 0.3 mm 4 mps 732 mmHg 68%
    14:00 +25°C° 0.5 mm 4 mps 732 mmHg 69%
    15:00 +25°C° 0.5 mm 4 mps 732 mmHg 70%
    16:00 +25°C° 0.5 mm 4 mps 732 mmHg 71%
    17:00 +23°C° 0 mm 4 mps 732 mmHg 75%
    18:00 +21°C° 0 mm 4 mps 732 mmHg 79%
    19:00 +20°C° 0 mm 3 mps 732 mmHg 84%
    20:00 +19°C° 0 mm 3 mps 732 mmHg 86%
    21:00 +18°C° 0 mm 3 mps 732 mmHg 88%
    22:00 +16°C° 0 mm 3 mps 732 mmHg 91%
    23:00 +16°C° 0 mm 2 mps 732 mmHg 92%

    29 May, Tuesday

    Time Temperature Precipitation Wind Pressure Humidity
    00:00 +15°C° 0 mm 2 mps 732 mmHg 93%
    01:00 +15°C° 0 mm 2 mps 732 mmHg 93%
    02:00 +15°C° 0 mm 2 mps 732 mmHg 94%
    03:00 +14°C° 0 mm 2 mps 732 mmHg 94%
    04:00 +14°C° 0 mm 2 mps 732 mmHg 95%
    05:00 +16°C° 0 mm 2 mps 732 mmHg 89%
    06:00 +18°C° 0 mm 2 mps 732 mmHg 84%
    07:00 +20°C° 0 mm 3 mps 733 mmHg 78%
    08:00 +21°C° 0 mm 3 mps 733 mmHg 71%
    09:00 +24°C° 0 mm 3 mps 733 mmHg 65%
    10:00 +26°C° 0 mm 4 mps 733 mmHg 58%
    11:00 +26°C° 0 mm 4 mps 733 mmHg 56%
    12:00 +27°C° 0 mm 4 mps 733 mmHg 54%
    13:00 +27°C° 0 mm 4 mps 732 mmHg 53%
    14:00 +27°C° 0 mm 4 mps 732 mmHg 55%
    15:00 +27°C° 0 mm 4 mps 732 mmHg 56%
    16:00 +26°C° 0 mm 4 mps 732 mmHg 58%
    17:00 +25°C° 0 mm 4 mps 732 mmHg 65%
    18:00 +22°C° 0 mm 4 mps 731 mmHg 72%
    19:00 +20°C° 0 mm 3 mps 731 mmHg 80%
    20:00 +19°C° 0 mm 3 mps 731 mmHg 83%
    21:00 +18°C° 0 mm 2 mps 731 mmHg 87%
    22:00 +17°C° 0 mm 2 mps 731 mmHg 91%
    23:00 +16°C° 0 mm 2 mps 731 mmHg 91%
    Show more